TimeEDT,TemperatureF,Dew PointF,Humidity,Sea Level PressureIn,VisibilityMPH,Wind Direction,Wind SpeedMPH,Gust SpeedMPH,PrecipitationIn,Events,Conditions,WindDirDegrees,DateUTC
12:07 AM,70.0,70.0,100,29.78,5.0,WSW,6.9,-,N/A,,Overcast,240,2013-09-03 04:07:00
12:41 AM,69.1,69.1,100,29.77,5.0,SSW,6.9,-,N/A,,Mostly Cloudy,210,2013-09-03 04:41:00
12:52 AM,69.8,69.8,100,29.76,5.0,SSW,6.9,-,N/A,,Overcast,200,2013-09-03 04:52:00
12:54 AM,69.1,69.1,100,29.75,5.0,SSW,6.9,-,N/A,,Overcast,200,2013-09-03 04:54:00
1:54 AM,69.1,68.0,96,29.75,6.0,WSW,9.2,-,N/A,,Overcast,240,2013-09-03 05:54:00
2:13 AM,69.1,68.0,96,29.75,7.0,SW,4.6,-,N/A,,Overcast,230,2013-09-03 06:13:00
2:54 AM,69.1,68.0,96,29.74,5.0,West,6.9,-,N/A,,Overcast,270,2013-09-03 06:54:00
3:26 AM,66.9,66.9,100,29.75,7.0,SW,6.9,-,N/A,,Mostly Cloudy,220,2013-09-03 07:26:00
3:34 AM,68.0,66.9,96,29.74,7.0,WSW,6.9,-,N/A,,Scattered Clouds,250,2013-09-03 07:34:00
3:54 AM,66.9,66.0,97,29.73,7.0,SW,8.1,-,N/A,,Clear,230,2013-09-03 07:54:00
4:52 AM,66.2,66.2,100,29.75,6.0,WSW,6.9,-,N/A,,Scattered Clouds,240,2013-09-03 08:52:00
4:54 AM,66.0,66.0,100,29.74,6.0,WSW,8.1,-,N/A,,Scattered Clouds,250,2013-09-03 08:54:00
5:54 AM,66.0,64.9,96,29.75,8.0,WSW,5.8,-,N/A,,Clear,250,2013-09-03 09:54:00
6:54 AM,64.9,64.0,97,29.77,7.0,WSW,6.9,-,N/A,,Clear,240,2013-09-03 10:54:00
7:08 AM,64.9,64.9,100,29.79,6.0,WSW,5.8,-,N/A,,Partly Cloudy,250,2013-09-03 11:08:00
7:54 AM,66.9,64.9,93,29.79,10.0,West,5.8,-,N/A,,Clear,270,2013-09-03 11:54:00
8:54 AM,70.0,63.0,78,29.80,10.0,West,5.8,-,N/A,,Partly Cloudy,280,2013-09-03 12:54:00
9:54 AM,71.1,64.0,78,29.81,10.0,SSW,5.8,-,N/A,,Clear,200,2013-09-03 13:54:00
10:54 AM,73.0,64.0,73,29.79,10.0,SSW,6.9,-,N/A,,Partly Cloudy,200,2013-09-03 14:54:00
11:45 AM,73.9,64.0,71,29.79,10.0,SW,6.9,-,N/A,,Overcast,230,2013-09-03 15:45:00
11:52 AM,75.2,64.4,69,29.79,10.0,SW,5.8,-,N/A,,Overcast,230,2013-09-03 15:52:00
11:54 AM,73.9,64.9,73,29.78,10.0,West,5.8,-,N/A,,Overcast,270,2013-09-03 15:54:00
12:36 PM,75.0,64.9,71,29.78,10.0,Variable,6.9,-,N/A,,Overcast,0,2013-09-03 16:36:00
12:54 PM,75.0,64.9,71,29.77,10.0,West,5.8,-,N/A,,Overcast,270,2013-09-03 16:54:00
1:54 PM,73.0,64.9,76,29.77,10.0,WSW,8.1,-,N/A,,Overcast,240,2013-09-03 17:54:00
2:54 PM,73.0,64.9,76,29.76,10.0,West,10.4,-,N/A,,Overcast,260,2013-09-03 18:54:00
3:01 PM,73.0,64.9,76,29.77,10.0,West,8.1,-,N/A,,Overcast,260,2013-09-03 19:01:00
3:54 PM,72.0,64.0,76,29.76,10.0,West,10.4,-,N/A,,Overcast,260,2013-09-03 19:54:00
4:54 PM,70.0,61.0,73,29.77,10.0,WNW,9.2,-,N/A,,Overcast,290,2013-09-03 20:54:00
5:10 PM,69.1,61.0,75,29.78,10.0,West,10.4,-,N/A,,Mostly Cloudy,270,2013-09-03 21:10:00
5:32 PM,69.1,61.0,75,29.78,10.0,WNW,9.2,-,N/A,,Overcast,290,2013-09-03 21:32:00
5:54 PM,69.1,61.0,75,29.77,10.0,West,10.4,-,N/A,,Mostly Cloudy,280,2013-09-03 21:54:00
6:54 PM,66.9,61.0,81,29.78,10.0,West,8.1,-,N/A,,Clear,280,2013-09-03 22:54:00
7:54 PM,64.0,61.0,90,29.81,10.0,West,6.9,-,N/A,,Clear,270,2013-09-03 23:54:00
8:54 PM,64.0,59.0,84,29.82,10.0,West,9.2,-,N/A,,Clear,280,2013-09-04 00:54:00
9:54 PM,62.1,55.9,80,29.84,10.0,West,9.2,-,N/A,,Clear,280,2013-09-04 01:54:00
10:54 PM,61.0,55.0,81,29.84,10.0,West,15.0,-,N/A,,Clear,280,2013-09-04 02:54:00
11:54 PM,61.0,54.0,78,29.84,10.0,West,19.6,-,N/A,,Clear,280,2013-09-04 03:54:00